Location: Newark
(15.4608°S, 41.1635°W)
Time: 22:40:44
(UTC+00:00)

Transit 4A - Pass Details

Date: 08 August 2021
Orbit: 871 x 974 km, 66.8° (Epoch: 17 September)

Event Time Altitude Azimuth Distance (km) Brightness Sun altitude
Rises 23:21:37 0° 212° (SSW) 3,621 11.2 -39.9°
Reaches altitude 10° 23:24:18 10° 219° (SW) 2,656 10.5 -40.6°
Enters shadow 23:25:18 15° 223° (SW) 2,316 10.2 -40.8°
